Location: Glens Falls
(43.3090°N, 73.6440°W)
Time: 07:08:35
(UTC-04:00)

Daily predictions for brighter satellites

Satellite Brightness Start Highest point End
(mag) Time Altitude Azimuth Time Altitude Azimuth Time Altitude Azimuth
Cosmos 1697 Rocket 3.7 20:56:07 10° N 21:01:09 33° NE 21:06:11 10° ESE
Cosmos 2074 Rocket 4.5 20:55:40 10° NNW 21:01:52 66° W 21:08:04 10° S
TELKOM 3 3.0 21:02:25 10° WNW 21:04:35 77° NNE 21:07:18 10° ESE
Aureole 1 Rocket 4.4 21:03:14 10° SW 21:06:00 30° WNW 21:08:43 10° N
Lacrosse 5 rocket 4.0 21:04:06 10° NNW 21:07:15 18° NNE 21:10:26 10° ENE
Helios 1A 3.3 21:03:35 10° S 21:07:47 72° WSW 21:11:59 10° NNW
Cosmos 1666 4.1 21:05:05 10° NNW 21:08:37 39° W 21:12:07 10° SSW
Cosmos 2369 3.8 21:06:30 10° NNW 21:12:16 74° ENE 21:17:56 10° SSE
CZ-4B DEB 2.7 21:09:32 10° S 21:12:30 75° WSW 21:15:30 10° NNW
Helios 1B rocket 2.6 21:09:10 10° NNE 21:13:19 82° WNW 21:17:26 10° SSW
SL-16 R/B 4.4 21:11:52 10° NNE 21:13:56 12° NE 21:16:00 10° ENE
Cosmos 2181 Rocket 4.3 21:10:06 10° SSE 21:16:08 49° E 21:22:07 10° NNE
Cosmos 1833 Rocket 3.1 21:11:21 10° S 21:16:34 41° ESE 21:21:50 10° NE
Cosmos 1624 Rocket 4.4 21:13:53 10° NNW 21:19:09 68° WSW 21:24:25 10° S
NOSS 8 (F) 4.5 21:15:49 10° SW 21:19:19 89° SE 21:22:58 10° NE
Cosmos 921 Rocket 3.0 21:15:46 10° NNW 21:20:16 81° ENE 21:24:38 10° SSE
Meteor 1-15 Rocket 4.3 21:16:01 10° NNW 21:21:36 80° W 21:27:09 10° S
Cosmos 2228 3.6 21:17:35 10° N 21:21:40 41° ENE 21:25:24 12° SSE
Resurs 01 Rocket 4.2 21:22:06 10° SW 21:25:17 19° W 21:28:30 10° NW
Cosmos 962 Rocket 4.5 21:21:44 10° N 21:27:59 77° E 21:34:07 10° SSE
MOS 1-B Rocket 4.3 21:22:39 10° SSE 21:28:30 64° ENE 21:35:15 10° N
SPOT 5 3.4 21:25:57 12° SE 21:29:32 38° ENE 21:33:38 10° N
Okean 2 3.7 21:26:25 10° SSW 21:30:27 67° W 21:34:33 10° N
Envisat 4.3 21:32:25 10° SSW 21:37:08 38° W 21:41:52 10° NNW
Cosmos 2056 Rocket 4.3 21:34:13 10° NNW 21:39:08 47° WSW 21:44:00 10° S
H-2A R/B 2.9 21:35:35 14° SE 21:39:19 34° ENE 21:43:54 10° N
Lacrosse 5 3.5 21:39:42 14° ESE 21:39:42 14° ESE 21:41:54 10° E
Cosmos 1515 3.9 21:39:21 10° SSW 21:43:08 72° W 21:46:58 10° N
SL-8 Rocket 4.1 21:38:14 10° N 21:44:28 64° E 21:49:59 14° SSE
Cosmos 1066 Rocket 4.3 21:39:40 10° S 21:45:04 56° E 21:50:38 10° NNE
ISS -1.1 21:42:40 10° WNW 21:45:17 21° N 21:47:54 10° NE
ARGOS 3.3 21:43:10 14° SSE 21:47:45 66° ENE 21:53:09 10° N
Cosmos 1437 Rocket 4.2 21:45:11 10° NNW 21:48:43 35° W 21:52:19 10° SSW
Cosmos 1980 Rocket 2.7 21:45:58 10° NNW 21:51:27 48° ENE 21:55:24 18° SE
Cosmos 1892 Rocket 3.9 21:47:35 10° SSW 21:51:59 66° W 21:56:22 10° N
Cosmos 2366 rocket 4.2 21:46:28 10° N 21:52:30 54° ENE 21:57:05 18° SSE
Cosmos 1420 Rocket 4.1 21:47:45 10° NNW 21:52:59 63° ENE 21:56:40 19° SE
Cosmos 1269 Rocket 4.5 21:50:53 13° SSE 21:55:14 41° ESE 22:00:11 10° NE
Cosmos 1602 Rocket 3.9 21:53:36 18° SSE 21:56:26 44° E 22:00:33 10° NNE
Cosmos 1048 Rocket 4.3 21:53:09 13° S 21:57:26 43° ESE 22:02:21 10° NNE
MetOp-B 4.2 21:54:11 13° S 21:58:57 80° WSW 22:04:20 10° NNW
CZ-3A R/B 0.9 22:00:45 10° WSW 22:03:34 42° NW 22:04:56 10° NE
Cosmos 2322 Rocket 3.7 21:59:41 10° N 22:04:21 25° NE 22:08:15 13° E
Meteor 1-4 Rocket 2.4 22:02:19 10° N 22:05:53 90° NNE 22:07:49 25° S
ERS-1 Rocket 3.8 22:01:34 10° S 22:06:24 48° W 22:11:16 10° NNW
ATLAS CENTAUR R/B 3.1 22:05:20 10° N 22:08:05 19° NE 22:10:13 13° E
Cosmos 1809 Rocket 4.4 22:03:44 10° N 22:09:51 79° E 22:14:20 19° SSE
Cosmos 1452 Rocket 3.9 22:05:36 10° NNW 22:10:48 62° WSW 22:14:43 18° S
Tiangong 2 1.3 22:13:36 10° W 22:16:44 52° SSW 22:17:23 42° SSE
Cosmos 389 Rocket 4.2 22:15:53 10° NNE 22:18:29 19° ENE 22:19:05 19° E
CARTOSAT-1 4.2 22:20:45 27° ESE 22:22:32 42° ENE 22:26:37 10° N
Nimbus 7 Rocket 4.4 22:17:01 10° NNE 22:23:08 82° ESE 22:28:50 12° SSW
Cosmos 1766 3.2 22:20:15 10° N 22:24:09 71° E 22:25:39 35° SSE
Meteor 2-16 Rocket 4.5 22:19:27 10° N 22:25:36 68° E 22:29:13 26° SSE
Cosmos 1953 3.6 22:22:56 10° NNE 22:26:30 28° ENE 22:27:32 25° E
USA 229 DEB 3.8 22:21:21 10° NW 22:28:33 88° SW 22:33:04 26° SSE
USA 229 3.8 22:21:27 10° NW 22:28:39 88° SW 22:33:10 26° SSE
Meteor 1-21 4.3 22:25:57 22° S 22:29:38 67° E 22:35:23 10° NNE
USA 245 3.6 22:29:30 25° WSW 22:29:51 27° W 22:31:51 10° NW
Landsat 7 3.8 22:27:34 30° SSE 22:29:57 75° ENE 22:34:43 10° N
SPOT 1/Viking Rocket 3.6 22:27:59 23° S 22:31:12 73° WSW 22:36:22 10° NNW
Cosmos 2082 Rocket 3.2 22:26:25 10° SW 22:31:53 48° WNW 22:37:21 10° NNE
EP 2 4.4 22:31:23 36° SW 22:32:17 73° NW 22:35:02 10° NNE
Cosmos 158 Rocket 4.0 22:31:05 12° SSW 22:35:57 90° WNW 22:41:23 10° NNE
Orbus 7S? 4.1 22:29:35 10° NW 22:36:47 62° NE 22:38:33 30° ESE
Cosmos 1470 4.4 22:35:06 10° NNE 22:38:11 21° ENE 22:38:52 20° E
Cosmos 2218 Rocket 4.4 22:32:39 10° NNW 22:38:43 60° W 22:43:21 18° SSW
Timation 2 Rocket 4.2 22:34:32 10° SSW 22:40:52 72° WNW 22:47:00 10° NNE
Cosmos 2251 Rocket 4.4 22:40:17 29° ESE 22:41:23 32° E 22:46:06 10° NE
Terra 1.8 22:43:04 36° SSE 22:44:59 74° ENE 22:49:45 10° N
Cosmos 1697 Rocket 3.6 22:40:00 10° NW 22:45:11 39° WSW 22:48:28 20° SSW
Cosmos 1758 Rocket 4.2 22:44:41 34° ESE 22:45:18 35° E 22:49:18 10° NNE
H-2A R/B 2.2 22:45:17 39° SSE 22:46:54 73° ENE 22:51:25 10° N
Lacrosse 5 rocket 2.3 22:43:00 10° NW 22:47:31 48° NE 22:49:48 26° E
Cosmos 1812 Rocket 3.9 22:45:00 10° NNW 22:49:25 62° W 22:51:20 32° SSW
Cosmos 1805 3.1 22:45:50 10° N 22:49:45 76° E 22:50:34 53° SSE
CZ-4B R/B 4.0 22:47:28 10° NNE 22:52:22 43° E 22:53:41 36° SE
Cosmos 494 Rocket 4.2 22:56:29 40° SE 22:57:42 48° ESE 23:02:40 10° NNE
Iridium 2 3.7 22:54:05 10° N 22:57:53 76° W 22:58:41 53° SSW
SL-16 R/B 2.4 22:53:42 10° NNW 22:59:19 59° ENE 23:01:37 35° SE
Cosmos 1833 Rocket 4.4 22:55:37 10° WSW 23:00:35 32° NW 23:05:37 10° N
Cosmos 1544 3.3 22:59:02 10° NNW 23:02:38 62° W 23:03:12 52° SW
Nadezhda 3 Rocket 4.0 23:00:38 29° S 23:04:11 88° E 23:10:34 10° N
SL-19 R/B 4.1 23:07:17 64° SE 23:07:46 77° ENE 23:11:20 10° NNW
Cosmos 1758 3.3 23:07:15 10° N 23:11:15 77° W 23:11:51 61° SSW
Cosmos 1825 Rocket 3.5 23:10:25 48° SSW 23:11:33 82° W 23:15:55 10° N
Cosmos 1953 Rocket 3.5 23:11:52 56° SSE 23:12:43 74° E 23:17:10 10° NNE
Cosmos 1821 Rocket 4.0 23:08:55 10° N 23:15:16 78° E 23:17:48 39° SSE
Cosmos 1271 Rocket 4.0 23:11:58 10° NNW 23:15:34 35° W 23:16:35 30° SW
Spot 4 3.8 23:16:19 51° SSE 23:17:32 82° ENE 23:22:23 10° NNW
H-2A R/B 3.4 23:16:13 19° SW 23:18:45 29° W 23:23:10 10° NW
Cosmos 1733 3.3 23:16:00 10° N 23:19:48 60° E 23:19:52 60° E
Cosmos 2084 Rocket 4.2 23:22:05 36° ENE 23:22:05 36° ENE 23:24:48 10° NE
SME Rocket 3.9 23:20:27 37° ESE 23:21:22 42° ENE 23:25:08 10° N
Lacrosse 5 1.7 23:18:43 25° SW 23:21:42 81° SE 23:26:47 10° NE
ISS -1.3 23:19:58 10° NW 23:22:35 21° N 23:24:57 11° ENE
deb Kosmos-1763 4.1 23:26:08 77° E 23:26:08 77° E 23:29:53 10° NNE
Cosmos-2242 3.1 23:21:49 10° N 23:26:04 59° E 23:26:24 57° ESE
ALOS 2 4.0 23:32:10 25° E 23:32:55 27° ENE 23:36:35 10° N
Cosmos 2360 Rocket 2.8 23:28:53 10° NNW 23:34:21 46° ENE 23:36:19 33° ESE
Cosmos 1980 Rocket 3.7 23:30:33 10° NW 23:35:07 26° WSW 23:37:10 21° SW
Cosmos 1605 Rocket 4.1 23:32:08 10° N 23:38:12 63° E 23:40:00 44° SE
CZ-4C R/B 3.2 23:38:56 68° WNW 23:38:56 68° WNW 23:42:24 10° NNW
Cosmos 1331 Rocket 4.2 23:33:44 10° NNW 23:38:48 57° WSW 23:39:53 47° SSW
USA 267 3.8 23:34:37 10° ENE 23:40:26 35° SE 23:40:26 35° SE
SeaSat 1 3.8 23:44:25 23° E 23:46:25 31° NE 23:50:44 10° N
ATLAS CENTAUR R/B 2.2 23:43:46 10° NW 23:46:29 35° W 23:46:29 35° W
Cosmos 2221 4.4 23:44:32 10° NNE 23:47:38 19° ENE 23:48:06 19° E
COSMOS 2428 4.1 23:43:40 10° N 23:48:44 30° NE 23:51:29 21° E
Cosmos 2322 Rocket 2.5 23:43:11 10° NNW 23:48:46 57° WSW 23:50:04 46° SSW
Cosmos 1302 Rocket 3.9 23:44:28 10° NNW 23:49:47 81° WSW 23:50:45 60° S
NOSS 3-1 (C) 4.2 23:43:35 10° NW 23:51:06 61° WSW 23:54:11 39° S
Cosmos 389 Rocket 4.3 23:50:32 10° NW 23:53:06 22° W 23:53:06 22° W
